Weather History for Pasco, WA

Change the Weather History Date:

Monday, April 22, 2013

  Actual Average Record
Temperature  
Mean Temperature 47 °F 54 °F  
Max Temperature 62 °F 69 °F 83 °F (2012)
Min Temperature 31 °F 39 °F 28 °F (2011)
Degree Days  
Heating Degree Days 18 11  
Month to date heating degree days 293 282  
Since 1 July heating degree days 4476 4743  
Cooling Degree Days 0 0  
Month to date cooling degree days 0 0  
Year to date cooling degree days 0 0  
Moisture  
Dew Point 26 °F    
Average Humidity 52    
Maximum Humidity 89    
Minimum Humidity 14    
Precipitation  
Precipitation 0.00 in 0.02 in 0.15 in (2014)
Month to date precipitation 0.55 0.50  
Year to date precipitation 1.26 3.37  
Snow  
Snow 0.00 in - - ()
Snow Depth 0.00 in    
Sea Level Pressure  
Sea Level Pressure 30.43 in    
Wind  
Wind Speed 6 mph (North)    
Max Wind Speed 14 mph    
Max Gust Speed 26 mph    
Visibility 10 miles    
Events      
T = Trace of Precipitation, MM = Missing Value Source: NWS Daily Summary

Daily Weather History Graph

Daily Weather History Graph

Search for Another Location

Airport:

Trip Planner

Search our weather history database for the weather conditions in past years. The results will help you decide how hot, cold, wet, or windy it might be!

Date:

Astronomy

Apr. 22, 2013 Rise Set
Actual Time 5:56 AM PDT 7:53 PM PDT
Civil Twilight 5:24 AM PDT 8:26 PM PDT
Nautical Twilight 4:45 AM PDT 9:05 PM PDT
Astronomical Twilight 4:01 AM PDT 9:49 PM PDT
Moon 4:38 PM PDT (4/22) 4:05 AM PDT (4/22)
Length of Visible Light 15h 01m
Length of Day
13h 56m
Waxing Gibbous, 88% of the Moon is Illuminated
Apr 22
Waxing Gibbous
Apr 25
Full
May 2
Last Quarter
May 9
New
May 17
First Quarter

Hourly Weather History & Observations

Time (PDT) Temp. Windchill Dew Point Humidity Pressure Visibility Wind Dir Wind Speed Gust Speed Precip Events Conditions
12:53 AM 42.1 °F - 30.9 °F 65% 30.29 in 10.0 mi Calm Calm - N/A   Clear
1:53 AM 39.0 °F 32.3 °F 30.9 °F 73% 30.31 in 10.0 mi NW 10.4 mph - N/A   Clear
2:53 AM 39.0 °F 34.8 °F 34.0 °F 82% 30.34 in 10.0 mi NNW 5.8 mph - N/A   Overcast
3:53 AM 37.0 °F 30.4 °F 34.0 °F 89% 30.38 in 10.0 mi NNW 9.2 mph - N/A   Overcast
4:53 AM 35.1 °F 28.6 °F 30.9 °F 85% 30.40 in 10.0 mi NNW 8.1 mph - N/A   Clear
5:53 AM 33.1 °F 26.1 °F 30.0 °F 89% 30.43 in 10.0 mi North 8.1 mph - N/A   Clear
6:53 AM 36.0 °F 29.6 °F 32.0 °F 86% 30.47 in 10.0 mi North 8.1 mph - N/A   Clear
7:53 AM 42.1 °F 37.7 °F 34.0 °F 73% 30.49 in 10.0 mi NNW 6.9 mph - N/A   Clear
8:53 AM 45.0 °F 40.6 °F 32.0 °F 60% 30.51 in 10.0 mi NNW 8.1 mph - N/A   Clear
9:53 AM 48.0 °F - 30.9 °F 52% 30.50 in 10.0 mi Variable 4.6 mph - N/A   Clear
10:53 AM 53.1 °F - 28.0 °F 38% 30.50 in 10.0 mi North 6.9 mph - N/A   Clear
11:53 AM 55.9 °F - 23.0 °F 28% 30.50 in 10.0 mi Variable 6.9 mph - N/A   Clear
12:53 PM 57.9 °F - 19.0 °F 22% 30.48 in 10.0 mi NE 6.9 mph - N/A   Clear
1:53 PM 61.0 °F - 15.1 °F 17% 30.47 in 10.0 mi NNE 8.1 mph - N/A   Clear
2:53 PM 61.0 °F - 15.1 °F 17% 30.45 in 10.0 mi NE 12.7 mph 26.5 mph N/A   Clear
3:53 PM 62.1 °F - 12.0 °F 14% 30.43 in 10.0 mi NNE 9.2 mph - N/A   Clear
4:53 PM 62.1 °F - 14.0 °F 15% 30.42 in 10.0 mi NNE 8.1 mph - N/A   Clear
5:53 PM 61.0 °F - 21.0 °F 21% 30.40 in 10.0 mi North 8.1 mph - N/A   Clear
6:53 PM 57.0 °F - 30.0 °F 36% 30.40 in 10.0 mi NW 3.5 mph - N/A   Clear
7:53 PM 51.1 °F - 28.0 °F 41% 30.40 in 10.0 mi East 3.5 mph - N/A   Clear
8:53 PM 53.1 °F - 16.0 °F 23% 30.42 in 10.0 mi SSE 3.5 mph - N/A   Clear
9:53 PM 48.0 °F - 23.0 °F 37% 30.42 in 10.0 mi SSE 3.5 mph - N/A   Clear
10:53 PM 37.9 °F - 28.0 °F 68% 30.42 in 10.0 mi Calm Calm - N/A   Clear
11:53 PM 35.1 °F - 28.0 °F 76% 30.40 in 10.0 mi Calm Calm - N/A   Clear